Time,TemperatureF,DewpointF,PressureIn,WindDirection,WindDirectionDegrees,WindSpeedMPH,WindSpeedGustMPH,Humidity,HourlyPrecipIn,Conditions,Clouds,dailyrainin,SolarRadiationWatts/m^2,SoftwareType,DateUTC
2013-07-02 00:10:00,81.9,52.0,31.32,East,89,0.0,7.0,36,0.00,,,0.00,0,weatherlink.com 1.10,2013-07-02 06:10:00,
2013-07-02 00:20:00,82.3,51.0,31.32,East,89,0.0,2.0,34,0.00,,,0.00,0,weatherlink.com 1.10,2013-07-02 06:20:00,
2013-07-02 00:39:00,81.0,51.0,31.33,SE,124,0.0,3.0,35,0.00,,,0.00,0,weatherlink.com 1.10,2013-07-02 06:39:00,
2013-07-02 00:50:00,80.2,52.0,31.33,SE,125,1.0,3.0,38,0.00,,,0.00,0,weatherlink.com 1.10,2013-07-02 06:50:00,
2013-07-02 01:05:00,79.4,50.0,31.33,ESE,113,1.0,4.0,36,0.00,,,0.00,0,weatherlink.com 1.10,2013-07-02 07:05:00,
2013-07-02 01:19:00,78.5,51.0,31.34,SE,136,5.0,6.0,38,0.00,,,0.00,0,weatherlink.com 1.10,2013-07-02 07:19:00,
2013-07-02 01:35:00,78.5,51.0,31.35,SSE,150,7.0,7.0,38,0.00,,,0.00,0,weatherlink.com 1.10,2013-07-02 07:35:00,
2013-07-02 01:50:00,74.8,52.0,31.35,SSE,166,4.0,10.0,45,0.00,,,0.00,0,weatherlink.com 1.10,2013-07-02 07:50:00,
2013-07-02 02:05:00,71.8,52.0,31.35,SSE,166,3.0,5.0,50,0.00,,,0.00,0,weatherlink.com 1.10,2013-07-02 08:05:00,
2013-07-02 02:20:00,72.3,52.0,31.35,SSE,157,0.0,4.0,49,0.00,,,0.00,0,weatherlink.com 1.10,2013-07-02 08:20:00,
2013-07-02 02:35:00,72.3,53.0,31.35,SSE,157,0.0,2.0,50,0.00,,,0.00,0,weatherlink.com 1.10,2013-07-02 08:35:00,
2013-07-02 02:50:00,71.7,52.0,31.35,SSE,157,0.0,0.0,51,0.00,,,0.00,0,weatherlink.com 1.10,2013-07-02 08:50:00,
2013-07-02 03:05:00,71.9,52.0,31.35,SSE,157,0.0,1.0,50,0.00,,,0.00,0,weatherlink.com 1.10,2013-07-02 09:05:00,
2013-07-02 03:20:00,72.8,52.0,31.35,SSE,157,0.0,1.0,49,0.00,,,0.00,0,weatherlink.com 1.10,2013-07-02 09:20:00,
2013-07-02 03:35:00,72.5,52.0,31.35,SSE,157,0.0,1.0,49,0.00,,,0.00,0,weatherlink.com 1.10,2013-07-02 09:35:00,
2013-07-02 03:50:00,72.1,52.0,31.35,SSE,157,0.0,1.0,49,0.00,,,0.00,0,weatherlink.com 1.10,2013-07-02 09:50:00,
2013-07-02 04:05:00,72.0,52.0,31.36,SSE,157,0.0,0.0,49,0.00,,,0.00,0,weatherlink.com 1.10,2013-07-02 10:05:00,
2013-07-02 04:20:00,71.4,52.0,31.36,SSE,157,3.0,4.0,50,0.00,,,0.00,0,weatherlink.com 1.10,2013-07-02 10:20:00,
2013-07-02 04:35:00,71.6,51.0,31.36,SSE,158,1.0,3.0,49,0.00,,,0.00,0,weatherlink.com 1.10,2013-07-02 10:35:00,
2013-07-02 04:50:00,71.4,51.0,31.36,SSE,158,0.0,1.0,49,0.00,,,0.00,0,weatherlink.com 1.10,2013-07-02 10:50:00,
2013-07-02 05:05:00,70.6,51.0,31.36,SSE,153,3.0,4.0,50,0.00,,,0.00,0,weatherlink.com 1.10,2013-07-02 11:05:00,
2013-07-02 05:20:00,70.5,51.0,31.36,SSE,152,1.0,4.0,50,0.00,,,0.00,0,weatherlink.com 1.10,2013-07-02 11:20:00,
2013-07-02 05:35:00,70.6,51.0,31.37,SSE,152,0.0,1.0,50,0.00,,,0.00,0,weatherlink.com 1.10,2013-07-02 11:35:00,
2013-07-02 05:50:00,70.4,51.0,31.37,SSE,152,1.0,2.0,50,0.00,,,0.00,5,weatherlink.com 1.10,2013-07-02 11:50:00,
2013-07-02 06:05:00,69.7,51.0,31.37,SSE,152,3.0,4.0,52,0.00,,,0.00,14,weatherlink.com 1.10,2013-07-02 12:05:00,
2013-07-02 06:20:00,69.0,51.0,31.37,SSE,152,2.0,3.0,53,0.00,,,0.00,23,weatherlink.com 1.10,2013-07-02 12:20:00,
2013-07-02 06:35:00,68.7,51.0,31.38,SSE,152,2.0,2.0,54,0.00,,,0.00,33,weatherlink.com 1.10,2013-07-02 12:35:00,
2013-07-02 06:50:00,68.9,51.0,31.38,SSE,152,0.0,2.0,54,0.00,,,0.00,40,weatherlink.com 1.10,2013-07-02 12:50:00,
2013-07-02 07:05:00,68.5,52.0,31.38,SSE,152,2.0,3.0,55,0.00,,,0.00,70,weatherlink.com 1.10,2013-07-02 13:05:00,
2013-07-02 07:20:00,68.3,51.0,31.39,SSE,152,2.0,3.0,55,0.00,,,0.00,100,weatherlink.com 1.10,2013-07-02 13:20:00,
2013-07-02 07:35:00,69.1,52.0,31.39,SSE,152,0.0,1.0,54,0.00,,,0.00,134,weatherlink.com 1.10,2013-07-02 13:35:00,
2013-07-02 07:50:00,69.6,54.0,31.39,SSE,152,0.0,1.0,57,0.00,,,0.00,179,weatherlink.com 1.10,2013-07-02 13:50:00,
2013-07-02 08:05:00,70.8,53.0,31.39,SSE,152,0.0,3.0,53,0.00,,,0.00,221,weatherlink.com 1.10,2013-07-02 14:05:00,
2013-07-02 08:20:00,72.1,53.0,31.39,SSE,152,0.0,1.0,52,0.00,,,0.00,260,weatherlink.com 1.10,2013-07-02 14:20:00,
2013-07-02 08:36:00,72.2,53.0,31.38,SSE,153,0.0,3.0,52,0.00,,,0.00,311,weatherlink.com 1.10,2013-07-02 14:36:00,
2013-07-02 08:51:00,72.7,55.0,31.38,South,180,3.0,4.0,55,0.00,,,0.00,366,weatherlink.com 1.10,2013-07-02 14:51:00,
2013-07-02 09:06:00,72.9,53.0,31.38,SSW,196,1.0,3.0,50,0.00,,,0.00,427,weatherlink.com 1.10,2013-07-02 15:06:00,
2013-07-02 09:21:00,73.1,52.0,31.38,SSW,198,0.0,3.0,47,0.00,,,0.00,424,weatherlink.com 1.10,2013-07-02 15:21:00,
2013-07-02 09:36:00,74.2,55.0,31.38,SSW,198,0.0,2.0,51,0.00,,,0.00,510,weatherlink.com 1.10,2013-07-02 15:36:00,
2013-07-02 09:51:00,74.6,57.0,31.38,SSW,200,0.0,3.0,54,0.00,,,0.00,367,weatherlink.com 1.10,2013-07-02 15:51:00,
2013-07-02 10:06:00,75.1,56.0,31.38,West,264,2.0,4.0,52,0.00,,,0.00,448,weatherlink.com 1.10,2013-07-02 16:06:00,
2013-07-02 10:21:00,75.6,57.0,31.37,WNW,296,0.0,3.0,52,0.00,,,0.00,482,weatherlink.com 1.10,2013-07-02 16:21:00,
2013-07-02 10:38:00,77.5,58.0,31.37,NW,309,0.0,3.0,51,0.00,,,0.00,671,weatherlink.com 1.10,2013-07-02 16:38:00,
2013-07-02 10:51:00,77.3,54.0,31.37,West,273,0.0,6.0,45,0.00,,,0.00,392,weatherlink.com 1.10,2013-07-02 16:51:00,
2013-07-02 11:06:00,77.0,55.0,31.36,West,273,0.0,5.0,46,0.00,,,0.00,446,weatherlink.com 1.10,2013-07-02 17:06:00,
2013-07-02 11:21:00,77.6,55.0,31.36,NW,325,1.0,4.0,46,0.00,,,0.00,306,weatherlink.com 1.10,2013-07-02 17:21:00,
2013-07-02 11:36:00,77.7,55.0,31.35,SSW,209,4.0,7.0,46,0.00,,,0.00,849,weatherlink.com 1.10,2013-07-02 17:36:00,
2013-07-02 11:51:00,78.8,57.0,31.34,WSW,242,0.0,6.0,48,0.00,,,0.00,603,weatherlink.com 1.10,2013-07-02 17:51:00,
2013-07-02 13:02:00,81.4,54.0,31.33,SSW,203,2.0,7.0,39,0.00,,,0.00,812,weatherlink.com 1.10,2013-07-02 19:02:00,
2013-07-02 13:07:00,81.7,54.0,31.33,SSW,203,3.0,7.0,39,0.00,,,0.00,501,weatherlink.com 1.10,2013-07-02 19:07:00,
2013-07-02 13:22:00,83.1,54.0,31.32,NNW,336,0.0,5.0,37,0.00,,,0.00,867,weatherlink.com 1.10,2013-07-02 19:22:00,
2013-07-02 13:37:00,86.0,54.0,31.31,WSW,244,4.0,7.0,33,0.00,,,0.00,867,weatherlink.com 1.10,2013-07-02 19:37:00,
2013-07-02 13:55:00,86.6,53.0,31.31,SSW,192,0.0,8.0,32,0.00,,,0.00,874,weatherlink.com 1.10,2013-07-02 19:55:00,
2013-07-02 14:35:00,-999.0,-99.9,31.29,North,-999,-999.0,-999.0,-999,0.00,,,0.00,,weatherlink.com 1.10,2013-07-02 20:35:00,
2013-07-02 14:52:00,-999.0,-99.9,31.28,North,-999,-999.0,-999.0,-999,0.00,,,0.00,,weatherlink.com 1.10,2013-07-02 20:52:00,
2013-07-02 15:07:00,-999.0,-99.9,31.27,North,-999,-999.0,-999.0,-999,0.00,,,0.00,,weatherlink.com 1.10,2013-07-02 21:07:00,
2013-07-02 15:22:00,-999.0,-99.9,31.27,North,-999,-999.0,-999.0,-999,0.00,,,0.00,,weatherlink.com 1.10,2013-07-02 21:22:00,
2013-07-02 15:38:00,-999.0,-99.9,31.26,North,-999,-999.0,-999.0,-999,0.00,,,0.00,,weatherlink.com 1.10,2013-07-02 21:38:00,
2013-07-02 15:53:00,-999.0,-99.9,31.25,North,-999,-999.0,-999.0,-999,0.00,,,0.00,,weatherlink.com 1.10,2013-07-02 21:53:00,
2013-07-02 16:08:00,-999.0,-99.9,31.24,North,-999,-999.0,-999.0,-999,0.00,,,0.00,,weatherlink.com 1.10,2013-07-02 22:08:00,
2013-07-02 16:23:00,-999.0,-99.9,31.23,North,-999,-999.0,-999.0,-999,0.00,,,0.00,,weatherlink.com 1.10,2013-07-02 22:23:00,
2013-07-02 16:38:00,-999.0,-99.9,31.23,North,-999,-999.0,-999.0,-999,0.00,,,0.00,,weatherlink.com 1.10,2013-07-02 22:38:00,
2013-07-02 16:53:00,-999.0,-99.9,31.22,North,-999,-999.0,-999.0,-999,0.00,,,0.00,,weatherlink.com 1.10,2013-07-02 22:53:00,
2013-07-02 17:08:00,-999.0,-99.9,31.21,North,-999,-999.0,-999.0,-999,0.00,,,0.00,,weatherlink.com 1.10,2013-07-02 23:08:00,
2013-07-02 17:23:00,-999.0,-99.9,31.21,North,-999,-999.0,-999.0,-999,0.00,,,0.00,,weatherlink.com 1.10,2013-07-02 23:23:00,
2013-07-02 17:38:00,-999.0,-99.9,31.20,North,-999,-999.0,-999.0,-999,0.00,,,0.00,,weatherlink.com 1.10,2013-07-02 23:38:00,
2013-07-02 17:53:00,-999.0,-99.9,31.20,North,-999,-999.0,-999.0,-999,0.00,,,0.00,,weatherlink.com 1.10,2013-07-02 23:53:00,
2013-07-02 18:08:00,-999.0,-99.9,31.20,North,-999,-999.0,-999.0,-999,0.00,,,0.00,,weatherlink.com 1.10,2013-07-03 00:08:00,
2013-07-02 18:23:00,-999.0,-99.9,31.19,North,-999,-999.0,-999.0,-999,0.00,,,0.00,,weatherlink.com 1.10,2013-07-03 00:23:00,
2013-07-02 18:38:00,-999.0,-99.9,31.19,North,-999,-999.0,-999.0,-999,0.00,,,0.00,,weatherlink.com 1.10,2013-07-03 00:38:00,
2013-07-02 18:53:00,-999.0,-99.9,31.18,North,-999,-999.0,-999.0,-999,0.00,,,0.00,,weatherlink.com 1.10,2013-07-03 00:53:00,
2013-07-02 19:09:00,-999.0,-99.9,31.18,North,-999,-999.0,-999.0,-999,0.00,,,0.00,,weatherlink.com 1.10,2013-07-03 01:09:00,
2013-07-02 19:24:00,-999.0,-99.9,31.18,North,-999,-999.0,-999.0,-999,0.00,,,0.00,,weatherlink.com 1.10,2013-07-03 01:24:00,
2013-07-02 19:39:00,-999.0,-99.9,31.18,North,-999,-999.0,-999.0,-999,0.00,,,0.00,,weatherlink.com 1.10,2013-07-03 01:39:00,
2013-07-02 20:09:00,-999.0,-99.9,31.18,North,-999,-999.0,-999.0,-999,0.00,,,0.00,,weatherlink.com 1.10,2013-07-03 02:09:00,
2013-07-02 20:39:00,-999.0,-99.9,31.18,North,-999,-999.0,-999.0,-999,0.00,,,0.00,,weatherlink.com 1.10,2013-07-03 02:39:00,
2013-07-02 20:54:00,-999.0,-99.9,31.18,North,-999,-999.0,-999.0,-999,0.00,,,0.00,,weatherlink.com 1.10,2013-07-03 02:54:00,
2013-07-02 21:24:00,-999.0,-99.9,31.18,North,-999,-999.0,-999.0,-999,0.00,,,0.00,,weatherlink.com 1.10,2013-07-03 03:24:00,
2013-07-02 21:39:00,-999.0,-99.9,31.19,North,-999,-999.0,-999.0,-999,0.00,,,0.00,,weatherlink.com 1.10,2013-07-03 03:39:00,
2013-07-02 21:54:00,-999.0,-99.9,31.19,North,-999,-999.0,-999.0,-999,0.00,,,0.00,,weatherlink.com 1.10,2013-07-03 03:54:00,
2013-07-02 22:09:00,-999.0,-99.9,31.20,North,-999,-999.0,-999.0,-999,0.00,,,0.00,,weatherlink.com 1.10,2013-07-03 04:09:00,
2013-07-02 22:24:00,-999.0,-99.9,31.20,North,-999,-999.0,-999.0,-999,0.00,,,0.00,,weatherlink.com 1.10,2013-07-03 04:24:00,
2013-07-02 22:40:00,-999.0,-99.9,31.21,North,-999,-999.0,-999.0,-999,0.00,,,0.00,,weatherlink.com 1.10,2013-07-03 04:40:00,
2013-07-02 22:55:00,-999.0,-99.9,31.22,North,-999,-999.0,-999.0,-999,0.00,,,0.00,,weatherlink.com 1.10,2013-07-03 04:55:00,
2013-07-02 23:10:00,-999.0,-99.9,31.21,North,-999,-999.0,-999.0,-999,0.00,,,0.00,,weatherlink.com 1.10,2013-07-03 05:10:00,
2013-07-02 23:25:00,-999.0,-99.9,31.22,North,-999,-999.0,-999.0,-999,0.00,,,0.00,,weatherlink.com 1.10,2013-07-03 05:25:00,
2013-07-02 23:40:00,-999.0,-99.9,31.22,North,-999,-999.0,-999.0,-999,0.00,,,0.00,,weatherlink.com 1.10,2013-07-03 05:40:00,
2013-07-02 23:55:00,-999.0,-99.9,31.23,North,-999,-999.0,-999.0,-999,0.00,,,0.00,,weatherlink.com 1.10,2013-07-03 05:55:00,